User: anonymous   Login
Location: Caltech
(34.1382°N, 118.1253°W)
Time: 05:51:47
(UTC-07:00)
Language:

IRS-1A Rocket - Orbit

View from above orbital plane
View from above orbital plane
View from above satellite
View from above satellite

Ground track
Ground track

The orbit data is extracted from the following two-line orbital elements,

1 18961U 88021B   16180.98509523 -.00000008  00000-0  25197-4 0  9998
2 18961  99.2875 176.2968 0054597 113.6862 304.3466 14.00506666445972
Epoch (UTC): 28 June 2016 23:38:32
Eccentricity: 0.0054597
inclination: 99.2875°
perigee height: 852 km
apogee height: 932 km
right ascension of ascending node: 176.2968°
argument of perigee: 113.6862°
revolutions per day: 14.00506666
mean anomaly at epoch: 304.3466°
orbit number at epoch: 44597

The dashed part of the orbit path shows where the satellite is in the earth's shadow,  

DLR